When you browse on this site, cookies collect data to enhance your experience and personalize the content and advertising you see.
Visit our Privacy Policy to learn more. By continuing to use the site, you agree to this use of cookies and data.
  • en France
  • Liste des pays
  • À 7 jours
  • Température de l'eau
  • Carte satellitaire
  • Carte météo
  • Widgets météo
  • user-avatar
    Se connecter

    Météo par heure à Townsville

    Ce jour, 13 Décembre, Jeudi

    Heure Température Précipitation Vent Pression Humidité
    00:00 +28°C° 0.1 mm 3 m/s 749 mmHg 94%
    01:00 +28°C° 0.1 mm 3 m/s 749 mmHg 94%
    02:00 +28°C° 0.1 mm 3 m/s 749 mmHg 94%
    03:00 +27°C° 0.1 mm 3 m/s 748 mmHg 95%
    04:00 +27°C° 0 mm 3 m/s 748 mmHg 95%
    05:00 +28°C° 0.2 mm 3 m/s 748 mmHg 94%
    06:00 +28°C° 0.2 mm 3 m/s 749 mmHg 92%
    07:00 +28°C° 0.2 mm 3 m/s 749 mmHg 90%
    08:00 +30°C° 0.2 mm 2 m/s 749 mmHg 84%
    09:00 +31°C° 0.2 mm 2 m/s 749 mmHg 78%
    10:00 +32°C° 0 mm 2 m/s 749 mmHg 73%
    11:00 +34°C° 0.6 mm 2 m/s 749 mmHg 71%
    12:00 +34°C° 0.6 mm 2 m/s 748 mmHg 70%
    13:00 +35°C° 0.6 mm 2 m/s 748 mmHg 68%
    14:00 +32°C° 2.7 mm 2 m/s 748 mmHg 74%
    15:00 +31°C° 2.7 mm 1 m/s 748 mmHg 80%
    16:00 +30°C° 2.7 mm 1 m/s 748 mmHg 86%
    17:00 +29°C° 0.8 mm 1 m/s 748 mmHg 88%
    18:00 +29°C° 0.8 mm 1 m/s 748 mmHg 89%
    19:00 +28°C° 0.8 mm 1 m/s 748 mmHg 91%
    20:00 +28°C° 0 mm 2 m/s 748 mmHg 92%
    21:00 +28°C° 0 mm 2 m/s 748 mmHg 92%
    22:00 +28°C° 0 mm 1 m/s 749 mmHg 94%
    23:00 +28°C° 0.5 mm 1 m/s 748 mmHg 94%

    Demain, 14 Décembre, Vendredi

    Heure Température Précipitation Vent Pression Humidité
    00:00 +28°C° 0.5 mm 2 m/s 748 mmHg 94%
    01:00 +28°C° 0.5 mm 2 m/s 747 mmHg 93%
    02:00 +27°C° 0.2 mm 2 m/s 747 mmHg 92%
    03:00 +27°C° 0.2 mm 1 m/s 747 mmHg 91%
    04:00 +27°C° 0.2 mm 1 m/s 747 mmHg 90%
    05:00 +28°C° 0 mm 1 m/s 747 mmHg 88%
    06:00 +28°C° 0 mm 1 m/s 747 mmHg 86%
    07:00 +28°C° 0 mm 1 m/s 747 mmHg 83%
    08:00 +30°C° 0.6 mm 1 m/s 747 mmHg 78%
    09:00 +31°C° 0.6 mm 1 m/s 747 mmHg 72%
    10:00 +32°C° 0.6 mm 1 m/s 748 mmHg 67%
    11:00 +34°C° 0.3 mm 2 m/s 747 mmHg 63%
    12:00 +35°C° 0.3 mm 2 m/s 747 mmHg 59%
    13:00 +36°C° 0.3 mm 2 m/s 747 mmHg 54%
    14:00 +34°C° 0.6 mm 2 m/s 747 mmHg 63%
    15:00 +31°C° 0.6 mm 2 m/s 747 mmHg 73%
    16:00 +29°C° 0.6 mm 2 m/s 746 mmHg 82%
    17:00 +28°C° 0.7 mm 2 m/s 747 mmHg 84%
    18:00 +28°C° 0.7 mm 2 m/s 747 mmHg 87%
    19:00 +27°C° 0.7 mm 1 m/s 747 mmHg 89%
    20:00 +27°C° 0.5 mm 1 m/s 747 mmHg 90%
    21:00 +27°C° 0.5 mm 2 m/s 748 mmHg 90%
    22:00 +27°C° 0.5 mm 2 m/s 748 mmHg 91%
    23:00 +27°C° 0.2 mm 2 m/s 748 mmHg 91%

    Après-demain, 15 Décembre, Samedi

    Heure Température Précipitation Vent Pression Humidité
    00:00 +27°C° 0.2 mm 2 m/s 747 mmHg 92%
    01:00 +27°C° 0.2 mm 2 m/s 747 mmHg 92%
    02:00 +27°C° 0.1 mm 2 m/s 747 mmHg 93%
    03:00 +27°C° 0.1 mm 2 m/s 747 mmHg 93%
    04:00 +27°C° 0.1 mm 2 m/s 746 mmHg 93%
    05:00 +27°C° 0.9 mm 2 m/s 747 mmHg 93%
    06:00 +27°C° 0.9 mm 2 m/s 747 mmHg 94%
    07:00 +27°C° 0.9 mm 2 m/s 747 mmHg 94%
    08:00 +28°C° 1.1 mm 2 m/s 747 mmHg 89%
    09:00 +29°C° 1.1 mm 2 m/s 747 mmHg 84%
    10:00 +30°C° 1.1 mm 3 m/s 748 mmHg 79%
    11:00 +31°C° 1.2 mm 3 m/s 747 mmHg 78%
    12:00 +31°C° 1.2 mm 3 m/s 747 mmHg 76%
    13:00 +33°C° 1.2 mm 3 m/s 747 mmHg 75%
    14:00 +31°C° 1.7 mm 3 m/s 747 mmHg 78%
    15:00 +30°C° 1.7 mm 3 m/s 746 mmHg 82%
    16:00 +30°C° 1.7 mm 3 m/s 746 mmHg 85%
    17:00 +29°C° 1 mm 3 m/s 746 mmHg 89%
    18:00 +28°C° 1 mm 2 m/s 747 mmHg 92%
    19:00 +28°C° 1 mm 2 m/s 747 mmHg 95%
    20:00 +28°C° 1.8 mm 3 m/s 747 mmHg 95%
    21:00 +27°C° 1.8 mm 3 m/s 748 mmHg 95%
    22:00 +27°C° 1.8 mm 3 m/s 748 mmHg 96%
    23:00 +27°C° 1.8 mm 4 m/s 747 mmHg 96%

    16 Décembre, Dimanche

    Heure Température Précipitation Vent Pression Humidité
    00:00 +27°C° 1.8 mm 4 m/s 747 mmHg 96%
    01:00 +27°C° 1.8 mm 4 m/s 746 mmHg 96%
    02:00 +27°C° 1.3 mm 4 m/s 746 mmHg 96%
    03:00 +27°C° 1.3 mm 4 m/s 745 mmHg 96%
    04:00 +27°C° 1.3 mm 5 m/s 745 mmHg 96%
    05:00 +27°C° 1.2 mm 5 m/s 745 mmHg 95%
    06:00 +27°C° 1.2 mm 6 m/s 745 mmHg 94%
    07:00 +28°C° 1.2 mm 6 m/s 746 mmHg 92%
    08:00 +28°C° 3.2 mm 7 m/s 746 mmHg 92%
    09:00 +28°C° 3.2 mm 7 m/s 746 mmHg 92%
    10:00 +28°C° 3.2 mm 8 m/s 746 mmHg 91%
    11:00 +28°C° 5.8 mm 8 m/s 745 mmHg 92%
    12:00 +28°C° 5.8 mm 9 m/s 745 mmHg 92%
    13:00 +28°C° 5.8 mm 9 m/s 744 mmHg 92%
    14:00 +28°C° 11.3 mm 10 m/s 744 mmHg 91%
    15:00 +28°C° 11.3 mm 10 m/s 743 mmHg 90%
    16:00 +28°C° 11.3 mm 10 m/s 743 mmHg 90%
    17:00 +28°C° 4.7 mm 10 m/s 743 mmHg 90%
    18:00 +28°C° 4.7 mm 10 m/s 743 mmHg 90%
    19:00 +27°C° 4.7 mm 10 m/s 743 mmHg 90%
    20:00 +27°C° 0.8 mm 9 m/s 744 mmHg 89%
    21:00 +27°C° 0.8 mm 9 m/s 744 mmHg 89%
    22:00 +27°C° 0.8 mm 8 m/s 745 mmHg 88%
    23:00 +27°C° 0.5 mm 7 m/s 744 mmHg 87%

    17 Décembre, Lundi

    Heure Température Précipitation Vent Pression Humidité
    00:00 +27°C° 0.5 mm 7 m/s 744 mmHg 86%
    01:00 +27°C° 0.5 mm 7 m/s 744 mmHg 85%
    02:00 +27°C° 0.2 mm 6 m/s 744 mmHg 85%
    03:00 +27°C° 0.2 mm 6 m/s 744 mmHg 85%
    04:00 +27°C° 0.2 mm 6 m/s 744 mmHg 85%
    05:00 +27°C° 0 mm 5 m/s 744 mmHg 85%
    06:00 +27°C° 0 mm 5 m/s 745 mmHg 84%
    07:00 +28°C° 0 mm 4 m/s 746 mmHg 84%
    08:00 +29°C° 0 mm 4 m/s 746 mmHg 77%
    09:00 +32°C° 0 mm 4 m/s 746 mmHg 70%
    10:00 +34°C° 0 mm 4 m/s 747 mmHg 63%
    11:00 +34°C° 0.1 mm 4 m/s 746 mmHg 60%
    12:00 +35°C° 0.1 mm 3 m/s 746 mmHg 56%
    13:00 +36°C° 0.1 mm 3 m/s 745 mmHg 53%
    14:00 +36°C° 0.7 mm 3 m/s 745 mmHg 56%
    15:00 +35°C° 0.7 mm 3 m/s 745 mmHg 59%
    16:00 +35°C° 0.7 mm 3 m/s 744 mmHg 61%
    17:00 +34°C° 0.3 mm 3 m/s 745 mmHg 65%
    18:00 +32°C° 0.3 mm 2 m/s 745 mmHg 69%
    19:00 +30°C° 0.3 mm 2 m/s 746 mmHg 72%
    20:00 +30°C° 0.2 mm 2 m/s 746 mmHg 74%
    21:00 +30°C° 0.2 mm 2 m/s 747 mmHg 75%
    22:00 +29°C° 0.2 mm 2 m/s 747 mmHg 77%
    23:00 +29°C° 0.4 mm 2 m/s 747 mmHg 78%

    18 Décembre, Mardi

    Heure Température Précipitation Vent Pression Humidité
    00:00 +29°C° 0.4 mm 2 m/s 747 mmHg 79%
    01:00 +28°C° 0.4 mm 3 m/s 746 mmHg 80%
    02:00 +28°C° 0.3 mm 3 m/s 746 mmHg 81%
    03:00 +28°C° 0.3 mm 3 m/s 746 mmHg 82%
    04:00 +27°C° 0.3 mm 3 m/s 746 mmHg 83%
    05:00 +28°C° 0.1 mm 3 m/s 747 mmHg 82%
    06:00 +29°C° 0.1 mm 2 m/s 747 mmHg 81%
    07:00 +29°C° 0.1 mm 2 m/s 748 mmHg 80%
    08:00 +31°C° 0.2 mm 2 m/s 748 mmHg 74%
    09:00 +32°C° 0.2 mm 2 m/s 748 mmHg 69%
    10:00 +35°C° 0.2 mm 2 m/s 749 mmHg 63%
    11:00 +35°C° 0.9 mm 2 m/s 748 mmHg 63%
    12:00 +35°C° 0.9 mm 3 m/s 748 mmHg 63%
    13:00 +35°C° 0.9 mm 4 m/s 748 mmHg 63%
    14:00 +34°C° 1 mm 4 m/s 748 mmHg 69%
    15:00 +33°C° 1 mm 4 m/s 747 mmHg 75%
    16:00 +32°C° 1 mm 4 m/s 747 mmHg 81%
    17:00 +30°C° 0.7 mm 4 m/s 748 mmHg 85%
    18:00 +30°C° 0.7 mm 4 m/s 748 mmHg 88%
    19:00 +29°C° 0.7 mm 4 m/s 749 mmHg 91%
    20:00 +29°C° 2.9 mm 4 m/s 749 mmHg 92%
    21:00 +29°C° 2.9 mm 3 m/s 750 mmHg 93%
    22:00 +28°C° 2.9 mm 3 m/s 750 mmHg 95%
    23:00 +28°C° 4.8 mm 3 m/s 750 mmHg 95%
    Voir plus